| time (UTC) | temp F | wind direction | speed MPH | gust MPH | rain 1hr in | rain 24hr in | rain mn in | humidity % | barometer mb |
| 20260504081605 | 47 | 109 | 0.0 | 0.0 | 0.00 | 0.00 | 0.00 | 93 | 1017.1 |
| 20260504044513 | 51 | 109 | 0.0 | 0.0 | 0.00 | 0.00 | 0.00 | 90 | 1018.6 |
| 20260504043105 | 51 | 109 | 0.0 | 0.0 | 0.00 | 0.00 | 0.00 | 89 | 1018.6 |
| 20260504041526 | 51 | 109 | 0.0 | 0.0 | 0.00 | 0.00 | 0.00 | 89 | 1018.6 |
| 20260504040106 | 52 | 109 | 0.0 | 0.0 | 0.00 | 0.00 | 0.00 | 89 | 1018.5 |
| 20260504034526 | 52 | 109 | 0.0 | 0.0 | 0.00 | 0.00 | 0.00 | 88 | 1018.6 |
| 20260504033057 | 53 | 109 | 0.0 | 0.0 | 0.00 | 0.00 | 0.00 | 88 | 1018.6 |
| 20260504031522 | 53 | 109 | 0.0 | 0.0 | 0.00 | 0.00 | 0.00 | 87 | 1018.6 |
| 20260504030107 | 54 | 109 | 0.0 | 2.0 | 0.00 | 0.00 | 0.00 | 86 | 1018.5 |
| 20260504024517 | 55 | 109 | 0.0 | 2.0 | 0.00 | 0.00 | 0.00 | 85 | 1018.5 |
| 20260504023054 | 56 | 109 | 0.0 | 0.0 | 0.00 | 0.00 | 0.00 | 84 | 1018.4 |
| 20260504021520 | 57 | 109 | 0.0 | 0.0 | 0.00 | 0.00 | 0.00 | 83 | 1018.4 |
| 20260504020119 | 58 | 109 | 0.0 | 0.0 | 0.00 | 0.00 | 0.00 | 81 | 1018.1 |
| 20260504014531 | 59 | 109 | 0.0 | 0.0 | 0.00 | 0.00 | 0.00 | 76 | 1017.7 |
| 20260504013106 | 61 | 109 | 0.0 | 0.0 | 0.00 | 0.00 | 0.00 | 73 | 1017.6 |
| 20260504011515 | 63 | 109 | 0.0 | 0.0 | 0.00 | 0.00 | 0.00 | 67 | 1017.3 |
| 20260504010050 | 64 | 109 | 0.0 | 1.0 | 0.00 | 0.00 | 0.00 | 61 | 1017.2 |
| 20260504004522 | 65 | 109 | 0.0 | 2.0 | 0.00 | 0.00 | 0.00 | 61 | 1017.0 |
| 20260504003058 | 67 | 109 | 0.0 | 3.0 | 0.00 | 0.00 | 0.00 | 58 | 1016.8 |
| 20260504001535 | 68 | 107 | 0.0 | 2.0 | 0.00 | 0.00 | 0.00 | 57 | 1016.7 |
| 20260504000107 | 69 | 109 | 0.0 | 2.0 | 0.00 | 0.00 | 0.00 | 55 | 1016.6 |
| 20260503234532 | 70 | 112 | 0.0 | 4.0 | 0.00 | 0.00 | 0.00 | 54 | 1016.5 |
| 20260503233106 | 71 | 82 | 1.0 | 5.0 | 0.00 | 0.00 | 0.00 | 52 | 1016.5 |
| 20260503231536 | 72 | 84 | 0.0 | 6.0 | 0.00 | 0.00 | 0.00 | 52 | 1016.6 |
| 20260503230001 | 73 | 76 | 2.0 | 8.0 | 0.00 | 0.00 | 0.00 | 50 | 1016.4 |
| 20260503224544 | 73 | 142 | 4.0 | 9.0 | 0.00 | 0.00 | 0.00 | 50 | 1016.3 |
| 20260503223011 | 74 | 99 | 3.0 | 10.0 | 0.00 | 0.00 | 0.00 | 50 | 1016.2 |
| 20260503221553 | 74 | 130 | 1.0 | 4.0 | 0.00 | 0.00 | 0.00 | 45 | 1016.2 |
| 20260503220026 | 75 | 59 | 1.0 | 2.0 | 0.00 | 0.00 | 0.00 | 41 | 1016.3 |
| 20260503214610 | 75 | 44 | 2.0 | 5.0 | 0.00 | 0.00 | 0.00 | 41 | 1016.2 |
| 20260503213040 | 76 | 43 | 2.0 | 6.0 | 0.00 | 0.00 | 0.00 | 39 | 1016.1 |
| 20260503211510 | 76 | 185 | 2.0 | 9.0 | 0.00 | 0.00 | 0.00 | 38 | 1016.1 |
| 20260503210051 | 76 | 290 | 0.0 | 4.0 | 0.00 | 0.00 | 0.00 | 41 | 1016.2 |
| 20260503204516 | 76 | 61 | 1.0 | 8.0 | 0.00 | 0.00 | 0.00 | 40 | 1016.4 |
| 20260503203049 | 75 | 296 | 2.0 | 5.0 | 0.00 | 0.00 | 0.00 | 40 | 1016.5 |
| 20260503201510 | 75 | 306 | 1.0 | 5.0 | 0.00 | 0.00 | 0.00 | 40 | 1016.7 |
| 20260503200055 | 74 | 38 | 3.0 | 6.0 | 0.00 | 0.00 | 0.00 | 41 | 1016.8 |
| 20260503194504 | 76 | 126 | 3.0 | 8.0 | 0.00 | 0.00 | 0.00 | 40 | 1016.9 |
| 20260503193055 | 75 | 130 | 4.0 | 8.0 | 0.00 | 0.00 | 0.00 | 40 | 1017.3 |
| 20260503191518 | 75 | 13 | 1.0 | 5.0 | 0.00 | 0.00 | 0.00 | 41 | 1017.7 |
| 20260503190050 | 75 | 17 | 2.0 | 8.0 | 0.00 | 0.00 | 0.00 | 41 | 1017.9 |
| 20260503184508 | 73 | 136 | 1.0 | 7.0 | 0.00 | 0.02 | 0.00 | 43 | 1018.1 |
| 20260503183047 | 73 | 319 | 3.0 | 8.0 | 0.00 | 0.02 | 0.00 | 44 | 1018.4 |
| 20260503181516 | 73 | 110 | 2.0 | 12.0 | 0.00 | 0.02 | 0.00 | 47 | 1018.5 |
| 20260503180111 | 73 | 90 | 2.0 | 8.0 | 0.00 | 0.02 | 0.00 | 42 | 1018.6 |
| 20260503174516 | 72 | 55 | 2.0 | 6.0 | 0.00 | 0.03 | 0.00 | 45 | 1018.8 |
| 20260503173103 | 72 | 38 | 2.0 | 6.0 | 0.00 | 0.03 | 0.00 | 49 | 1018.9 |
| 20260503171516 | 72 | 32 | 3.0 | 7.0 | 0.00 | 0.03 | 0.00 | 51 | 1019.1 |
| 20260503150111 | 62 | 46 | 1.0 | 4.0 | 0.00 | 0.19 | 0.00 | 85 | 1019.9 |
| 20260503140107 | 59 | 34 | 1.0 | 4.0 | 0.00 | 0.67 | 0.00 | 94 | 1019.4 |